TimeEST,TemperatureF,Dew PointF,Humidity,Sea Level PressureIn,VisibilityMPH,Wind Direction,Wind SpeedMPH,Gust SpeedMPH,PrecipitationIn,Events,Conditions,WindDirDegrees,DateUTC
12:54 AM,26.1,17.1,69,30.21,10.0,South,17.3,25.3,N/A,,Clear,190,2013-01-08 05:54:00
1:54 AM,27.0,17.1,66,30.20,10.0,South,16.1,-,N/A,,Clear,180,2013-01-08 06:54:00
2:54 AM,28.9,18.0,64,30.20,10.0,South,19.6,25.3,N/A,,Clear,180,2013-01-08 07:54:00
3:54 AM,28.9,18.0,64,30.19,10.0,South,19.6,25.3,N/A,,Clear,190,2013-01-08 08:54:00
4:54 AM,28.0,18.0,66,30.19,10.0,South,19.6,25.3,N/A,,Clear,190,2013-01-08 09:54:00
5:54 AM,28.0,18.0,66,30.19,10.0,South,21.9,31.1,N/A,,Clear,190,2013-01-08 10:54:00
6:54 AM,28.9,18.0,64,30.22,10.0,South,16.1,26.5,N/A,,Clear,190,2013-01-08 11:54:00
7:54 AM,28.9,19.0,67,30.24,10.0,South,18.4,23.0,N/A,,Clear,190,2013-01-08 12:54:00
8:54 AM,30.0,19.9,66,30.25,10.0,SSW,16.1,24.2,N/A,,Clear,200,2013-01-08 13:54:00
9:54 AM,30.9,19.9,64,30.25,10.0,SSW,17.3,24.2,N/A,,Clear,200,2013-01-08 14:54:00
10:54 AM,32.0,21.0,64,30.25,10.0,South,11.5,21.9,N/A,,Clear,190,2013-01-08 15:54:00
11:54 AM,34.0,21.0,59,30.25,10.0,SSW,12.7,19.6,N/A,,Clear,210,2013-01-08 16:54:00
12:54 PM,35.1,21.0,57,30.25,10.0,SSW,15.0,-,N/A,,Clear,200,2013-01-08 17:54:00
1:54 PM,36.0,21.0,55,30.27,10.0,SSW,8.1,-,N/A,,Partly Cloudy,200,2013-01-08 18:54:00
2:54 PM,36.0,21.0,55,30.29,10.0,SSW,5.8,-,N/A,,Partly Cloudy,200,2013-01-08 19:54:00
3:54 PM,35.1,21.0,57,30.31,10.0,SW,3.5,-,N/A,,Partly Cloudy,220,2013-01-08 20:54:00
4:54 PM,28.0,19.0,69,30.32,10.0,Calm,Calm,-,N/A,,Partly Cloudy,0,2013-01-08 21:54:00
5:54 PM,27.0,19.9,75,30.33,10.0,Calm,Calm,-,N/A,,Clear,0,2013-01-08 22:54:00
6:54 PM,26.1,19.9,78,30.35,10.0,Calm,Calm,-,N/A,,Clear,0,2013-01-08 23:54:00
7:54 PM,25.0,18.0,75,30.37,10.0,Calm,Calm,-,N/A,,Clear,0,2013-01-09 00:54:00
8:54 PM,21.9,17.1,82,30.37,9.0,Calm,Calm,-,N/A,,Clear,0,2013-01-09 01:54:00
9:54 PM,19.0,16.0,88,30.37,8.0,Calm,Calm,-,N/A,,Clear,0,2013-01-09 02:54:00
10:54 PM,19.0,16.0,88,30.38,7.0,Calm,Calm,-,N/A,,Clear,0,2013-01-09 03:54:00
11:54 PM,19.0,15.1,85,30.37,7.0,Calm,Calm,-,N/A,,Clear,0,2013-01-09 04:54:00